CZ-6A DEB, 56675

Orbit data source: Space-Track

CZ-6A DEB, 56675 is space debris in SSO originally from a launch on Fri, 11 Nov 2022 UTC launched from the Taiyaun Space Center, China (TSC). Debris objects in space refer to the collection of defunct objects orbiting the Earth. Examples of debris include non-operational satellites, rocket bodies, and fragments generated from explosions, collisions, or faulty payload assembly.

Loading next visibility...
Identifier
56675, 2022-151AHB
Orbit
SSO
Country
Flag of CNCN / PRC
Related business
Manufacturer
SAST
Mission
Spacecraft
Bus & Motor
Unknown
Mass
Unknown
Launch date (UTC)
2022-11-11 (4 years ago)
Launch vehicle
Unknown
Launch site
Taiyaun Space Center, China (TSC)
Object type
Payload
Rocket body
Debris
Shape & HBR
Unknown shape, 0.1 m
Radar Cross Section
Small (<0.1 m²)

Expand to show TLE details & history
Last TLE update: 7 hours ago

TLE from 7 hours ago
0 CZ-6A DEB
1 56675U 22151AHB 26237.46546646  .00000689  00000-0  39922-3 0  9992
2 56675  98.8808 241.1962 0078225  99.9101 261.0911 14.10568409176653
Epoch: 2026-08-25T11:10Z
TLE epoch observation values (Epoch: 2026-08-25T11:10:16.302Z)
Latitude
-0°
Longitude
99.89585°
Altitude
869.522 km
Speed
7.413 km/s
True Right ascension
16h 04m 47s
True Declination
0° 00' 00"
Sunlit
Object was in daylight at epoch
Visualization orbit readout
Latitude
Unknown
Longitude
Unknown
Altitude
Unknown
Speed
Unknown
Apparent Right ascension
Unknown
Apparent Declination
Unknown
Sunlit
N/A
Visualization observer readout
Local Sidereal Time
09:48:49
Azimuth
Unknown
Elevation
Unknown
Doppler factor
Unknown
Orbital elements
Apogee altitude
911.185 km
Perigee altitude
798.028 km
Semi-major axis
7,232.743 km
Eccentricity
0.00782
Inclination
98.8808°
RAAN
241.1962°
Arg. of periapsis
99.9101°
True anomaly
260.2069°
Mean anomaly
261.0911°
Eccentric anomaly
260.64886°
Mean motion
3.52849 °/min
Orbital period
102.03 mins
BSTAR
0.00039922
Loading maneuver chart data...
Computing Atmospheric mass density...
Loading historical data...
Loading historical data...
Loading historical data...
Loading historical data...
Loading historical data...
Loading historical data...
Loading historical data...

Documentation

Showing up to 5 results
|